SWR115 EHAM-LSGG

Flight info

Callsign SWR115
Flight time N/A
Altitude 33000
Route EDUPO Z739 MISGO DCT ASBON DCT TUSUK DCT KRH/N0449F320 DCT NATOR/N0448F330 DCT LUTIX DCT BENOT
Aircraft A320/M-SDE3FGHIRWY/LB1

Departure

Time 2026-04-30 19:24
Airport Amsterdam Airport Schiphol (EHAM)

Arrival

Time N/A
Airport Geneva International Airport (LSGG)
Time Latitude Longitude Altitude Speed Heading
2026-04-30 18:52 52.30988 4.77167 4 ft 0 kts 184°
2026-04-30 19:13 52.30999 4.77169 4 ft 3 kts 183°
2026-04-30 19:14 52.31019 4.77170 4 ft 3 kts 180°
2026-04-30 19:14 52.31040 4.77169 4 ft 3 kts 174°
2026-04-30 19:14 52.31060 4.77164 4 ft 3 kts 161°
2026-04-30 19:14 52.31076 4.77151 4 ft 3 kts 119°
2026-04-30 19:15 52.31080 4.77139 4 ft 0 kts 93°
2026-04-30 19:16 52.31080 4.77140 4 ft 0 kts 93°
2026-04-30 19:17 52.31079 4.77171 4 ft 4 kts 93°
2026-04-30 19:17 52.31076 4.77241 4 ft 8 kts 93°
2026-04-30 19:18 52.31070 4.77409 4 ft 8 kts 93°
2026-04-30 19:18 52.31081 4.77505 4 ft 8 kts 25°
2026-04-30 19:18 52.31144 4.77529 4 ft 11 kts 40°
2026-04-30 19:19 52.31174 4.77647 4 ft 12 kts 25°
2026-04-30 19:19 52.31266 4.77663 4 ft 14 kts
2026-04-30 19:19 52.31504 4.77603 4 ft 21 kts 334°
2026-04-30 19:20 52.31579 4.77467 4 ft 17 kts 277°
2026-04-30 19:20 52.31577 4.77258 4 ft 20 kts 267°
2026-04-30 19:20 52.31558 4.76733 4 ft 25 kts 267°
2026-04-30 19:21 52.31550 4.76488 4 ft 20 kts 266°
2026-04-30 19:21 52.31532 4.75969 4 ft 22 kts 268°
2026-04-30 19:22 52.31515 4.75447 4 ft 19 kts 267°
2026-04-30 19:22 52.31490 4.74720 4 ft 10 kts 267°
2026-04-30 19:23 52.31671 4.74769 4 ft 18 kts 89°
2026-04-30 19:24 52.31729 4.76449 4 ft 134 kts 88°
2026-04-30 19:24 52.31783 4.78141 323 ft 155 kts 88°
2026-04-30 19:24 52.31907 4.81956 1627 ft 182 kts 88°
2026-04-30 19:25 52.31438 4.88675 2981 ft 235 kts 112°
2026-04-30 19:26 52.30217 4.93592 5313 ft 237 kts 113°
2026-04-30 19:26 52.29117 4.98857 6976 ft 248 kts 109°
2026-04-30 19:26 52.28639 5.01560 8065 ft 251 kts 108°
2026-04-30 19:27 52.27662 5.07148 9914 ft 260 kts 108°
2026-04-30 19:27 52.26616 5.13130 10853 ft 300 kts 107°
2026-04-30 19:28 52.26022 5.16533 11113 ft 319 kts 107°
2026-04-30 19:28 52.24649 5.23419 12594 ft 323 kts 117°
2026-04-30 19:29 52.22033 5.29485 13908 ft 330 kts 126°
2026-04-30 19:29 52.20656 5.32493 14574 ft 333 kts 126°
2026-04-30 19:30 52.16398 5.41640 16317 ft 343 kts 127°
2026-04-30 19:30 52.13470 5.47857 17444 ft 349 kts 127°
2026-04-30 19:31 52.10479 5.54178 18498 ft 355 kts 127°
2026-04-30 19:31 52.08958 5.57386 18974 ft 359 kts 127°
2026-04-30 19:31 52.05878 5.63859 19972 ft 365 kts 127°
2026-04-30 19:32 52.04321 5.67126 20449 ft 367 kts 127°
2026-04-30 19:32 52.02748 5.70421 20906 ft 370 kts 127°
2026-04-30 19:32 52.01163 5.73735 21311 ft 374 kts 127°
2026-04-30 19:32 51.99560 5.77083 21748 ft 376 kts 127°
2026-04-30 19:33 51.97951 5.80439 22167 ft 378 kts 127°
2026-04-30 19:33 51.96327 5.83822 22552 ft 381 kts 127°
2026-04-30 19:33 51.94693 5.87219 22944 ft 383 kts 127°
2026-04-30 19:33 51.93047 5.90639 23316 ft 386 kts 127°
2026-04-30 19:34 51.91393 5.94069 23679 ft 388 kts 127°
2026-04-30 19:34 51.89724 5.97524 24028 ft 390 kts 127°
2026-04-30 19:34 51.86361 6.04474 24706 ft 394 kts 127°
2026-04-30 19:35 51.84585 6.07873 24988 ft 398 kts 130°
2026-04-30 19:35 51.82766 6.11183 25310 ft 399 kts 130°
2026-04-30 19:35 51.80895 6.14591 25619 ft 401 kts 130°
2026-04-30 19:35 51.79062 6.17934 25911 ft 403 kts 130°
2026-04-30 19:36 51.77200 6.21332 26200 ft 405 kts 130°
2026-04-30 19:36 51.75296 6.24795 26489 ft 407 kts 130°
2026-04-30 19:36 51.71517 6.31669 27043 ft 411 kts 130°
2026-04-30 19:37 51.69642 6.35080 27311 ft 413 kts 130°
2026-04-30 19:37 51.67729 6.38557 27582 ft 415 kts 130°
2026-04-30 19:37 51.65813 6.42038 27867 ft 416 kts 130°
2026-04-30 19:37 51.63888 6.45530 28107 ft 419 kts 130°
2026-04-30 19:38 51.61944 6.49041 28361 ft 420 kts 130°
2026-04-30 19:38 51.59998 6.52554 28611 ft 422 kts 130°
2026-04-30 19:38 51.58039 6.56091 28869 ft 423 kts 130°
2026-04-30 19:38 51.56077 6.59629 29112 ft 425 kts 130°
2026-04-30 19:39 51.54103 6.63190 29357 ft 427 kts 130°
2026-04-30 19:39 51.52125 6.66754 29600 ft 429 kts 130°
2026-04-30 19:39 51.50133 6.70341 29839 ft 431 kts 129°
2026-04-30 19:39 51.48138 6.73930 30098 ft 432 kts 129°
2026-04-30 19:40 51.46131 6.77536 30330 ft 434 kts 129°
2026-04-30 19:40 51.44116 6.81142 30575 ft 436 kts 130°
2026-04-30 19:40 51.41982 6.84604 30819 ft 438 kts 135°
2026-04-30 19:40 51.39665 6.87808 31060 ft 442 kts 139°
2026-04-30 19:41 51.37172 6.90720 31271 ft 445 kts 143°
2026-04-30 19:41 51.35444 6.92505 31333 ft 448 kts 145°
2026-04-30 19:41 51.29305 6.98724 31373 ft 447 kts 145°
2026-04-30 19:42 51.24937 7.03135 31374 ft 447 kts 145°
2026-04-30 19:42 51.19684 7.08426 31373 ft 447 kts 145°
2026-04-30 19:43 51.14428 7.13703 31373 ft 446 kts 145°
2026-04-30 19:44 51.06547 7.21590 31377 ft 444 kts 145°
2026-04-30 19:44 51.01317 7.26805 31378 ft 444 kts 145°
2026-04-30 19:45 50.96083 7.32011 31378 ft 444 kts 145°
2026-04-30 19:45 50.90840 7.37211 31378 ft 444 kts 145°
2026-04-30 19:46 50.85596 7.42396 31379 ft 445 kts 145°
2026-04-30 19:46 50.80346 7.47575 31379 ft 445 kts 145°
2026-04-30 19:47 50.75094 7.52742 31381 ft 445 kts 145°
2026-04-30 19:47 50.69870 7.57976 31384 ft 444 kts 143°
2026-04-30 19:48 50.64691 7.63296 31387 ft 444 kts 143°
2026-04-30 19:48 50.59517 7.68618 31390 ft 444 kts 143°
2026-04-30 19:49 50.54341 7.73940 31392 ft 445 kts 143°
2026-04-30 19:49 50.46577 7.81919 31392 ft 444 kts 143°
2026-04-30 19:50 50.41436 7.87192 31391 ft 444 kts 143°
2026-04-30 19:50 50.36262 7.92490 31390 ft 444 kts 143°
2026-04-30 19:51 50.31047 7.97821 31388 ft 445 kts 143°
2026-04-30 19:51 50.25901 8.03069 31387 ft 445 kts 143°
2026-04-30 19:52 50.20718 8.08344 31386 ft 445 kts 143°
2026-04-30 19:52 50.15409 8.13349 31435 ft 449 kts 149°
2026-04-30 19:53 50.12533 8.15310 31668 ft 453 kts 155°
2026-04-30 19:53 50.09529 8.16822 31938 ft 457 kts 161°
2026-04-30 19:53 50.06432 8.18048 32172 ft 459 kts 162°
2026-04-30 19:53 50.03342 8.19248 32491 ft 458 kts 162°
2026-04-30 19:54 50.00247 8.20447 32799 ft 457 kts 162°
2026-04-30 19:54 49.97163 8.21639 33080 ft 457 kts 162°
2026-04-30 19:54 49.94069 8.22834 33293 ft 459 kts 162°
2026-04-30 19:54 49.90968 8.24029 33362 ft 460 kts 162°
2026-04-30 19:55 49.84777 8.26406 33383 ft 457 kts 162°
2026-04-30 19:55 49.78598 8.28773 33381 ft 457 kts 162°
2026-04-30 19:56 49.72418 8.31133 33377 ft 458 kts 162°
2026-04-30 19:56 49.66232 8.33488 33375 ft 458 kts 162°
2026-04-30 19:57 49.60036 8.35840 33374 ft 459 kts 162°
2026-04-30 19:57 49.53836 8.38188 33374 ft 459 kts 162°
2026-04-30 19:58 49.47629 8.40530 33376 ft 460 kts 162°
2026-04-30 19:58 49.41416 8.42870 33376 ft 460 kts 162°
2026-04-30 19:59 49.35234 8.45191 33375 ft 461 kts 162°
2026-04-30 20:00 49.25896 8.48686 33371 ft 461 kts 162°
2026-04-30 20:00 49.19653 8.51014 33366 ft 462 kts 162°
2026-04-30 20:01 49.10285 8.54497 33357 ft 462 kts 162°
2026-04-30 20:01 49.04029 8.56784 33350 ft 463 kts 165°
2026-04-30 20:02 48.97555 8.57354 33345 ft 472 kts 182°
2026-04-30 20:02 48.94308 8.56578 33346 ft 474 kts 188°
2026-04-30 20:03 48.84607 8.53524 33337 ft 474 kts 189°
2026-04-30 20:03 48.78145 8.51472 33334 ft 474 kts 189°
2026-04-30 20:04 48.71683 8.49414 33325 ft 474 kts 189°
2026-04-30 20:05 48.61995 8.46326 33318 ft 474 kts 189°
2026-04-30 20:05 48.52300 8.43236 33314 ft 474 kts 189°